View from above orbital plane
|
View from above satellite
|
Ground track
|
The orbit data is extracted from the following two-line orbital elements,
1 26474U 00047B 21060.25349813 .00000228 00000-0 30513-4 0 9996
2 26474 67.9927 88.7694 0061153 274.7017 84.7143 14.96092731117650
Epoch (UTC): | 01 March 2021 06:05:02 |
Eccentricity: | 0.0061153 |
inclination: | 67.9927° |
perigee height: | 536 km |
apogee height: | 621 km |
right ascension of ascending node: | 88.7694° |
argument of perigee: | 274.7017° |
revolutions per day: | 14.96092731 |
mean anomaly at epoch: | 84.7143° |
orbit number at epoch: | 11765 |
The dashed part of the orbit path shows where the satellite is in the earth's shadow,
|
|